TimeEST,TemperatureF,Dew PointF,Humidity,Sea Level PressureIn,VisibilityMPH,Wind Direction,Wind SpeedMPH,Gust SpeedMPH,PrecipitationIn,Events,Conditions,WindDirDegrees,DateUTC
12:53 AM,37.0,23.0,57,30.26,10.0,North,16.1,-,N/A,,Overcast,360,2013-11-20 05:53:00
1:53 AM,36.0,23.0,59,30.29,10.0,NNW,16.1,-,N/A,,Overcast,340,2013-11-20 06:53:00
2:53 AM,35.1,21.9,59,30.31,10.0,NW,17.3,23.0,N/A,,Mostly Cloudy,320,2013-11-20 07:53:00
3:53 AM,34.0,21.9,61,30.32,10.0,NW,12.7,-,N/A,,Mostly Cloudy,320,2013-11-20 08:53:00
4:53 AM,35.1,21.0,57,30.34,10.0,North,15.0,23.0,N/A,,Mostly Cloudy,350,2013-11-20 09:53:00
5:53 AM,35.1,21.0,57,30.37,10.0,North,13.8,24.2,N/A,,Mostly Cloudy,350,2013-11-20 10:53:00
6:53 AM,36.0,21.0,55,30.40,10.0,North,18.4,26.5,N/A,,Overcast,10,2013-11-20 11:53:00
7:53 AM,37.9,21.9,53,30.44,10.0,NNE,17.3,25.3,N/A,,Mostly Cloudy,20,2013-11-20 12:53:00
8:53 AM,39.0,21.0,49,30.47,10.0,North,18.4,24.2,N/A,,Scattered Clouds,360,2013-11-20 13:53:00
9:53 AM,39.0,21.0,49,30.48,10.0,North,18.4,28.8,N/A,,Scattered Clouds,10,2013-11-20 14:53:00
10:53 AM,41.0,21.0,45,30.48,10.0,North,18.4,-,N/A,,Scattered Clouds,360,2013-11-20 15:53:00
11:53 AM,42.1,21.0,43,30.48,10.0,North,19.6,26.5,N/A,,Partly Cloudy,350,2013-11-20 16:53:00
12:53 PM,41.0,23.0,49,30.48,10.0,North,19.6,26.5,N/A,,Partly Cloudy,360,2013-11-20 17:53:00
1:53 PM,41.0,21.9,47,30.48,10.0,North,16.1,25.3,N/A,,Clear,350,2013-11-20 18:53:00
2:53 PM,39.9,21.0,47,30.50,10.0,North,17.3,23.0,N/A,,Clear,360,2013-11-20 19:53:00
3:53 PM,37.9,21.0,51,30.51,10.0,North,12.7,21.9,N/A,,Clear,360,2013-11-20 20:53:00
4:53 PM,37.0,19.9,50,30.53,10.0,North,11.5,-,N/A,,Clear,360,2013-11-20 21:53:00
5:53 PM,37.9,19.9,48,30.55,10.0,North,15.0,-,N/A,,Clear,360,2013-11-20 22:53:00
6:53 PM,37.9,19.9,48,30.56,10.0,North,11.5,-,N/A,,Clear,360,2013-11-20 23:53:00
7:53 PM,37.9,19.9,48,30.57,10.0,North,11.5,-,N/A,,Clear,10,2013-11-21 00:53:00
8:53 PM,37.9,21.0,51,30.58,10.0,North,9.2,-,N/A,,Clear,360,2013-11-21 01:53:00
9:53 PM,37.0,21.0,52,30.58,10.0,North,9.2,-,N/A,,Clear,10,2013-11-21 02:53:00
10:53 PM,37.9,23.0,55,30.58,10.0,North,8.1,-,N/A,,Clear,10,2013-11-21 03:53:00
11:53 PM,35.1,24.1,64,30.58,10.0,North,6.9,-,N/A,,Clear,360,2013-11-21 04:53:00